Gulf Shores, AL

8:50 AM CDT on August 26, 2016 (GMT -0500)
Edwards

Weather History for KJKA - April, 2014

Change the Weather History Date:

Saturday, April 19, 2014

  Actual Average (KPNS) Record (KPNS)
Temperature  
Mean Temperature 66 °F 67 °F  
Max Temperature 77 °F 76 °F 87 °F (1976)
Min Temperature 54 °F 58 °F 41 °F (1983)
Degree Days  
Heating Degree Days 0 1  
Month to date heating degree days 43  
Since 1 July heating degree days 1527  
Cooling Degree Days 0 4  
Month to date cooling degree days 49  
Year to date cooling degree days 96  
Growing Degree Days 16 (Base 50)    
Moisture  
Dew Point 52 °F    
Average Humidity 67    
Maximum Humidity 96    
Minimum Humidity 36    
Precipitation  
Precipitation 0.00 in 0.14 in 3.46 in (1907)
Month to date precipitation 2.87  
Year to date precipitation 18.37  
Sea Level Pressure  
Sea Level Pressure 30.06 in    
Wind  
Wind Speed 8 mph (North)    
Max Wind Speed 15 mph    
Max Gust Speed 26 mph    
Visibility 10 miles    
Events      
T = Trace of Precipitation, MM = Missing Value Source: NWS Daily Summary

Daily Weather History Graph

Daily Weather History Graph

Search for Another Location

Airport or City:

Trip Planner

Search our weather history database for the weather conditions in past years. The results will help you decide how hot, cold, wet, or windy it might be!

Date:

Astronomy

Apr. 19, 2014 Rise Set
Actual Time 6:19 AM CDT 7:20 PM CDT
Civil Twilight 5:54 AM CDT 7:45 PM CDT
Nautical Twilight 5:25 AM CDT 8:15 PM CDT
Astronomical Twilight 4:54 AM CDT 8:45 PM CDT
Moon 11:52 PM CDT (4/19) 9:46 AM CDT (4/19)
Length of Visible Light 13h 51m
Length of Day
13h 01m
Waning Gibbous, 78% of the Moon is Illuminated
Apr 19
Waning Gibbous
Apr 22
Last Quarter
Apr 29
New
May 6
First Quarter
May 14
Full

Hourly Weather History & Observations

Time (CDT) Temp. Dew Point Humidity Pressure Visibility Wind Dir Wind Speed Gust Speed Precip Events Conditions
12:15 AM 56.7 °F 53.1 °F 88% 30.06 in 10.0 mi North 6.9 mph - N/A   Overcast
12:35 AM 57.2 °F 52.7 °F 85% 30.06 in 10.0 mi North 5.8 mph - N/A   Overcast
12:55 AM 57.2 °F 52.7 °F 85% 30.06 in 10.0 mi North 6.9 mph - N/A   Overcast
1:15 AM 57.2 °F 52.5 °F 84% 30.06 in 10.0 mi North 6.9 mph - N/A   Overcast
1:35 AM 57.2 °F 52.3 °F 84% 30.07 in 10.0 mi NNW 6.9 mph - N/A   Overcast
1:55 AM 57.0 °F 52.3 °F 84% 30.07 in 10.0 mi NNW 5.8 mph - N/A   Overcast
2:15 AM 56.7 °F 52.2 °F 85% 30.06 in 10.0 mi NNW 5.8 mph - N/A   Overcast
2:35 AM 56.3 °F 52.3 °F 87% 30.07 in 10.0 mi NW 5.8 mph - N/A   Overcast
2:55 AM 55.9 °F 52.7 °F 89% 30.07 in 10.0 mi NNW 5.8 mph - N/A   Overcast
3:15 AM 55.6 °F 52.5 °F 89% 30.05 in 10.0 mi NNW 6.9 mph - N/A   Overcast
3:35 AM 55.4 °F 52.3 °F 89% 30.05 in 10.0 mi NNW 5.8 mph - N/A   Mostly Cloudy
3:55 AM 54.9 °F 52.2 °F 91% 30.04 in 10.0 mi North 6.9 mph - N/A   Scattered Clouds
4:15 AM 54.9 °F 52.2 °F 91% 30.04 in 10.0 mi NNW 9.2 mph - N/A   Mostly Cloudy
4:35 AM 54.7 °F 52.0 °F 91% 30.03 in 10.0 mi North 8.1 mph - N/A   Mostly Cloudy
4:55 AM 54.5 °F 52.2 °F 92% 30.03 in 10.0 mi NNW 8.1 mph - N/A   Mostly Cloudy
5:15 AM 54.9 °F 52.3 °F 91% 30.03 in 10.0 mi NNW 9.2 mph 19.6 mph N/A   Overcast
5:35 AM 54.5 °F 52.2 °F 92% 30.04 in 10.0 mi North 9.2 mph - N/A   Overcast
5:55 AM 55.2 °F 52.0 °F 89% 30.06 in 10.0 mi North 13.8 mph 21.9 mph N/A   Overcast
6:15 AM 55.4 °F 51.8 °F 88% 30.07 in 10.0 mi North 9.2 mph 18.4 mph N/A   Overcast
6:35 AM 55.4 °F 51.6 °F 87% 30.08 in 10.0 mi NNW 8.1 mph - N/A   Overcast
6:55 AM 55.6 °F 51.6 °F 87% 30.08 in 10.0 mi North 6.9 mph - N/A   Overcast
7:15 AM 55.6 °F 51.4 °F 86% 30.09 in 10.0 mi NNW 6.9 mph - N/A   Overcast
7:35 AM 55.9 °F 51.8 °F 86% 30.09 in 10.0 mi North 6.9 mph - N/A   Overcast
7:55 AM 56.7 °F 51.8 °F 84% 30.09 in 10.0 mi North 10.4 mph - N/A   Overcast
8:15 AM 57.7 °F 52.2 °F 82% 30.08 in 10.0 mi NNE 8.1 mph - N/A   Mostly Cloudy
8:35 AM 58.8 °F 52.7 °F 80% 30.08 in 10.0 mi North 11.5 mph 17.3 mph N/A   Mostly Cloudy
8:55 AM 59.0 °F 52.7 °F 80% 30.10 in 10.0 mi NNE 11.5 mph 17.3 mph N/A   Overcast
9:15 AM 59.9 °F 52.7 °F 77% 30.10 in 10.0 mi North 9.2 mph - N/A   Overcast
9:35 AM 62.1 °F 53.6 °F 74% 30.10 in 10.0 mi North 11.5 mph 16.1 mph N/A   Mostly Cloudy
9:55 AM 64.2 °F 53.6 °F 68% 30.10 in 10.0 mi North 15.0 mph 19.6 mph N/A   Mostly Cloudy
10:15 AM 65.5 °F 53.6 °F 65% 30.10 in 10.0 mi North 11.5 mph 19.6 mph N/A   Mostly Cloudy
10:35 AM 65.3 °F 53.1 °F 65% 30.10 in 10.0 mi North 10.4 mph 18.4 mph N/A   Mostly Cloudy
10:55 AM 67.6 °F 52.7 °F 59% 30.10 in 10.0 mi North 13.8 mph 21.9 mph N/A   Scattered Clouds
11:15 AM 68.5 °F 53.4 °F 58% 30.09 in 10.0 mi North 9.2 mph 18.4 mph N/A   Mostly Cloudy
11:35 AM 68.9 °F 53.4 °F 58% 30.07 in 10.0 mi North 11.5 mph 18.4 mph N/A   Scattered Clouds
11:55 AM 69.8 °F 53.2 °F 56% 30.07 in 10.0 mi North 13.8 mph 18.4 mph N/A   Scattered Clouds
12:15 PM 70.9 °F 52.2 °F 51% 30.06 in 10.0 mi NNW 11.5 mph 20.7 mph N/A   Mostly Cloudy
12:35 PM 71.2 °F 51.6 °F 50% 30.05 in 10.0 mi North 11.5 mph 20.7 mph N/A   Scattered Clouds
12:55 PM 72.9 °F 51.6 °F 47% 30.05 in 10.0 mi North 9.2 mph 20.7 mph N/A   Clear
1:15 PM 72.5 °F 50.2 °F 45% 30.05 in 10.0 mi North 13.8 mph 19.6 mph N/A   Clear
1:35 PM 73.6 °F 50.4 °F 44% 30.04 in 10.0 mi NNW 10.4 mph 19.6 mph N/A   Clear
1:55 PM 74.3 °F 50.0 °F 42% 30.04 in 10.0 mi North 10.4 mph 26.5 mph N/A   Clear
2:15 PM 75.2 °F 51.1 °F 43% 30.04 in 10.0 mi North 11.5 mph 18.4 mph N/A   Clear
2:35 PM 75.0 °F 50.7 °F 42% 30.03 in 10.0 mi NNW 11.5 mph 25.3 mph N/A   Clear
2:55 PM 75.6 °F 50.5 °F 41% 30.02 in 10.0 mi NNW 12.7 mph 18.4 mph N/A   Clear
3:15 PM 76.3 °F 51.3 °F 41% 30.02 in 10.0 mi North 8.1 mph 17.3 mph N/A   Clear
3:35 PM 75.9 °F 50.2 °F 40% 30.01 in 10.0 mi NNW 13.8 mph 19.6 mph N/A   Clear
3:55 PM 76.8 °F 50.4 °F 39% 30.01 in 10.0 mi North 11.5 mph 16.1 mph N/A   Clear
4:15 PM 77.2 °F 49.8 °F 38% 30.01 in 10.0 mi North 10.4 mph 21.9 mph N/A   Clear
4:35 PM 77.2 °F 48.9 °F 37% 30.01 in 10.0 mi NNW 11.5 mph 18.4 mph N/A   Clear
4:55 PM 77.4 °F 48.2 °F 36% 30.00 in 10.0 mi NNW 10.4 mph 18.4 mph N/A   Clear
5:15 PM 77.4 °F 48.4 °F 36% 30.01 in 10.0 mi North 10.4 mph 17.3 mph N/A   Clear
5:35 PM 76.8 °F 47.7 °F 36% 30.02 in 10.0 mi North 11.5 mph 20.7 mph N/A   Clear
5:55 PM 76.3 °F 48.6 °F 38% 30.02 in 10.0 mi North 12.7 mph 18.4 mph N/A   Clear
6:15 PM 75.6 °F 48.2 °F 38% 30.02 in 10.0 mi North 5.8 mph - N/A   Clear
6:35 PM 74.7 °F 49.1 °F 40% 30.04 in 10.0 mi North 4.6 mph - N/A   Clear
6:55 PM 73.6 °F 49.3 °F 42% 30.04 in 10.0 mi North 5.8 mph - N/A   Clear
7:15 PM 71.4 °F 50.5 °F 48% 30.05 in 10.0 mi Calm Calm - N/A   Clear
7:35 PM 69.8 °F 50.7 °F 51% 30.05 in 10.0 mi Calm Calm - N/A   Scattered Clouds
7:55 PM 68.9 °F 51.6 °F 54% 30.07 in 10.0 mi Calm Calm - N/A   Mostly Cloudy
8:15 PM 68.9 °F 52.3 °F 55% 30.07 in 10.0 mi North 3.5 mph - N/A   Overcast
8:35 PM 68.9 °F 52.0 °F 55% 30.09 in 10.0 mi Calm Calm - N/A   Overcast
8:55 PM 68.5 °F 52.9 °F 57% 30.09 in 10.0 mi Calm Calm - N/A   Overcast
9:15 PM 67.8 °F 53.6 °F 60% 30.09 in 10.0 mi Calm Calm - N/A   Overcast
9:35 PM 66.7 °F 55.6 °F 67% 30.10 in 10.0 mi Calm Calm - N/A   Overcast
9:55 PM 67.1 °F 54.0 °F 63% 30.10 in 10.0 mi Calm Calm - N/A   Mostly Cloudy
10:15 PM 62.6 °F 56.7 °F 81% 30.10 in 10.0 mi ESE 3.5 mph - N/A   Scattered Clouds
10:35 PM 62.2 °F 57.7 °F 85% 30.10 in 10.0 mi ESE 4.6 mph - N/A   Clear
10:55 PM 61.9 °F 58.6 °F 89% 30.11 in 10.0 mi ESE 3.5 mph - N/A   Clear
11:15 PM 61.2 °F 58.5 °F 91% 30.11 in 10.0 mi East 3.5 mph - N/A   Clear
11:35 PM 59.4 °F 57.4 °F 93% 30.10 in 10.0 mi Calm Calm - N/A   Clear
11:55 PM 60.1 °F 59.0 °F 96% 30.10 in 10.0 mi Calm Calm - N/A   Clear